TimeCDT,TemperatureF,Dew PointF,Humidity,Sea Level PressureIn,VisibilityMPH,Wind Direction,Wind SpeedMPH,Gust SpeedMPH,PrecipitationIn,Events,Conditions,WindDirDegrees,DateUTC
12:56 AM,65.8,64.9,97,30.13,10.0,Calm,Calm,-,N/A,,Clear,0,2013-07-26 05:56:00
1:56 AM,64.9,63.9,96,30.12,8.0,Calm,Calm,-,N/A,,Clear,0,2013-07-26 06:56:00
2:56 AM,63.0,63.0,100,30.11,3.0,Calm,Calm,-,N/A,,Clear,0,2013-07-26 07:56:00
3:56 AM,61.9,61.9,100,30.11,3.0,Calm,Calm,-,N/A,,Clear,0,2013-07-26 08:56:00
4:10 AM,62.6,62.6,100,30.08,2.0,Calm,Calm,-,N/A,,Clear,0,2013-07-26 09:10:00
4:38 AM,62.6,62.6,100,30.08,4.0,Calm,Calm,-,N/A,,Clear,0,2013-07-26 09:38:00
4:56 AM,61.9,61.9,100,30.12,5.0,Calm,Calm,-,N/A,,Clear,0,2013-07-26 09:56:00
5:12 AM,60.8,60.8,100,30.08,1.8,Calm,Calm,-,N/A,,Clear,0,2013-07-26 10:12:00
5:20 AM,60.8,60.8,100,30.08,1.2,Calm,Calm,-,N/A,,Clear,0,2013-07-26 10:20:00
5:30 AM,60.8,60.8,100,30.08,1.8,Calm,Calm,-,N/A,,Clear,0,2013-07-26 10:30:00
5:37 AM,60.8,60.8,100,30.08,3.0,Calm,Calm,-,N/A,,Clear,0,2013-07-26 10:37:00
5:44 AM,60.8,60.8,100,30.08,2.0,Calm,Calm,-,N/A,,Clear,0,2013-07-26 10:44:00
5:47 AM,60.8,60.8,100,30.08,1.2,Calm,Calm,-,N/A,,Clear,0,2013-07-26 10:47:00
5:49 AM,60.8,60.8,100,30.08,0.8,Calm,Calm,-,N/A,,Clear,0,2013-07-26 10:49:00
5:56 AM,61.0,61.0,100,30.12,0.8,Calm,Calm,-,N/A,,Clear,0,2013-07-26 10:56:00
6:02 AM,60.8,60.8,100,30.08,1.2,Calm,Calm,-,N/A,,Clear,0,2013-07-26 11:02:00
6:19 AM,60.8,60.8,100,30.07,1.0,Calm,Calm,-,N/A,,Clear,0,2013-07-26 11:19:00
6:32 AM,60.8,60.8,100,30.08,1.5,Calm,Calm,-,N/A,,Clear,0,2013-07-26 11:32:00
6:38 AM,60.8,60.8,100,30.09,3.0,Calm,Calm,-,N/A,,Clear,0,2013-07-26 11:38:00
6:56 AM,61.9,61.9,100,30.14,3.0,Calm,Calm,-,N/A,,Clear,0,2013-07-26 11:56:00
7:56 AM,70.0,65.8,87,30.13,10.0,ENE,4.6,-,N/A,,Clear,60,2013-07-26 12:56:00
8:56 AM,75.9,65.8,71,30.14,10.0,East,3.5,-,N/A,,Clear,100,2013-07-26 13:56:00
9:56 AM,77.9,65.8,66,30.14,10.0,Variable,3.5,-,N/A,,Clear,0,2013-07-26 14:56:00
10:56 AM,81.0,64.9,58,30.14,10.0,Variable,4.6,-,N/A,,Clear,0,2013-07-26 15:56:00
11:56 AM,81.9,63.9,54,30.13,10.0,South,3.5,-,N/A,,Partly Cloudy,180,2013-07-26 16:56:00
12:56 PM,81.0,64.9,58,30.12,10.0,WSW,5.8,-,N/A,,Mostly Cloudy,250,2013-07-26 17:56:00
1:56 PM,83.8,65.8,55,30.12,10.0,Variable,4.6,-,N/A,,Scattered Clouds,0,2013-07-26 18:56:00
2:56 PM,84.9,64.9,51,30.10,10.0,Variable,4.6,-,N/A,,Mostly Cloudy,0,2013-07-26 19:56:00
3:56 PM,82.9,65.8,56,30.09,10.0,West,5.8,-,N/A,,Clear,280,2013-07-26 20:56:00
4:56 PM,82.9,65.8,56,30.10,10.0,WSW,3.5,-,N/A,,Clear,250,2013-07-26 21:56:00
5:56 PM,79.9,68.0,67,30.09,10.0,NW,3.5,-,N/A,,Clear,320,2013-07-26 22:56:00
6:56 PM,77.0,68.9,76,30.08,10.0,Calm,Calm,-,N/A,,Clear,0,2013-07-26 23:56:00
7:56 PM,74.8,68.0,79,30.08,10.0,North,3.5,-,N/A,,Clear,350,2013-07-27 00:56:00
8:56 PM,72.0,68.0,87,30.07,10.0,Calm,Calm,-,N/A,,Clear,0,2013-07-27 01:56:00
9:56 PM,70.9,68.9,93,30.06,10.0,Calm,Calm,-,N/A,,Clear,0,2013-07-27 02:56:00
10:56 PM,70.9,68.0,91,30.06,10.0,Calm,Calm,-,N/A,,Clear,0,2013-07-27 03:56:00
11:56 PM,70.0,68.9,96,30.06,10.0,Calm,Calm,-,N/A,,Clear,0,2013-07-27 04:56:00